Time,TemperatureF,DewpointF,PressureIn,WindDirection,WindDirectionDegrees,WindSpeedMPH,WindSpeedGustMPH,Humidity,HourlyPrecipIn,Conditions,Clouds,dailyrainin,SoftwareType,DateUTC
2013-06-29 00:01:00,82.4,59.0,29.87,NNE,29,0.0,0.0,45,0.00,,---,0.00,VWS V14.00,2013-06-29 05:01:00,
2013-06-29 00:07:00,82.1,58.7,29.87,NNE,33,0.0,0.0,45,0.00,,---,0.00,VWS V14.00,2013-06-29 05:07:00,
2013-06-29 00:12:00,81.7,58.3,29.87,NE,39,0.0,7.0,45,0.00,,---,0.00,VWS V14.00,2013-06-29 05:12:00,
2013-06-29 00:17:00,81.5,58.8,29.87,NNE,22,0.0,4.0,46,0.00,,---,0.00,VWS V14.00,2013-06-29 05:17:00,
2013-06-29 00:22:00,81.3,58.6,29.87,NNE,23,0.0,0.0,46,0.00,,---,0.00,VWS V14.00,2013-06-29 05:22:00,
2013-06-29 00:27:00,81.1,59.0,29.87,NNE,25,0.0,0.0,47,0.00,,---,0.00,VWS V14.00,2013-06-29 05:27:00,
2013-06-29 00:32:00,80.9,58.8,29.87,NNE,25,0.0,2.0,47,0.00,,---,0.00,VWS V14.00,2013-06-29 05:32:00,
2013-06-29 00:37:00,80.8,58.7,29.87,North,10,0.0,7.0,47,0.00,,---,0.00,VWS V14.00,2013-06-29 05:37:00,
2013-06-29 00:42:00,80.7,58.6,29.87,NNE,28,0.0,0.0,47,0.00,,---,0.00,VWS V14.00,2013-06-29 05:42:00,
2013-06-29 00:47:00,80.5,58.4,29.87,NE,40,0.0,0.0,47,0.00,,---,0.00,VWS V14.00,2013-06-29 05:47:00,
2013-06-29 00:52:00,80.3,58.2,29.87,NNE,30,0.0,6.0,47,0.00,,---,0.00,VWS V14.00,2013-06-29 05:52:00,
2013-06-29 00:57:00,80.2,58.8,29.88,NE,37,0.0,0.0,48,0.00,,---,0.00,VWS V14.00,2013-06-29 05:57:00,
2013-06-29 01:03:00,80.0,58.6,29.88,NE,48,0.0,0.0,48,0.00,,---,0.00,VWS V14.00,2013-06-29 06:03:00,
2013-06-29 01:09:00,79.8,58.4,29.88,NNE,17,4.0,7.0,48,0.00,,---,0.00,VWS V14.00,2013-06-29 06:09:00,
2013-06-29 01:14:00,79.6,58.8,29.87,NNE,32,0.0,0.0,49,0.00,,---,0.00,VWS V14.00,2013-06-29 06:14:00,
2013-06-29 01:19:00,79.4,58.6,29.87,NE,34,2.0,2.0,49,0.00,,---,0.00,VWS V14.00,2013-06-29 06:19:00,
2013-06-29 01:24:00,79.3,58.5,29.87,NNE,22,0.0,0.0,49,0.00,,---,0.00,VWS V14.00,2013-06-29 06:24:00,
2013-06-29 01:29:00,79.1,58.9,29.88,NE,35,0.0,0.0,50,0.00,,---,0.00,VWS V14.00,2013-06-29 06:29:00,
2013-06-29 01:34:00,78.8,58.6,29.88,NE,36,0.0,0.0,50,0.00,,---,0.00,VWS V14.00,2013-06-29 06:34:00,
2013-06-29 01:39:00,78.6,59.0,29.88,NE,37,0.0,0.0,51,0.00,,---,0.00,VWS V14.00,2013-06-29 06:39:00,
2013-06-29 01:44:00,78.4,58.8,29.88,NE,37,0.0,0.0,51,0.00,,---,0.00,VWS V14.00,2013-06-29 06:44:00,
2013-06-29 01:49:00,78.1,59.1,29.88,NE,37,0.0,0.0,52,0.00,,---,0.00,VWS V14.00,2013-06-29 06:49:00,
2013-06-29 01:54:00,77.9,58.9,29.88,NE,37,0.0,0.0,52,0.00,,---,0.00,VWS V14.00,2013-06-29 06:54:00,
2013-06-29 01:59:00,77.7,59.2,29.88,NE,37,0.0,0.0,53,0.00,,---,0.00,VWS V14.00,2013-06-29 06:59:00,
2013-06-29 02:04:00,77.6,59.1,29.88,NE,37,0.0,0.0,53,0.00,,---,0.00,VWS V14.00,2013-06-29 07:04:00,
2013-06-29 02:09:00,77.5,59.0,29.88,NE,37,0.0,0.0,53,0.00,,---,0.00,VWS V14.00,2013-06-29 07:09:00,
2013-06-29 02:14:00,77.3,58.8,29.89,NE,37,0.0,0.0,53,0.00,,---,0.00,VWS V14.00,2013-06-29 07:14:00,
2013-06-29 02:19:00,77.0,59.1,29.89,NE,37,0.0,0.0,54,0.00,,---,0.00,VWS V14.00,2013-06-29 07:19:00,
2013-06-29 02:25:00,76.7,58.8,29.89,NE,37,0.0,0.0,54,0.00,,---,0.00,VWS V14.00,2013-06-29 07:25:00,
2013-06-29 02:30:00,76.5,59.2,29.89,NE,37,0.0,0.0,55,0.00,,---,0.00,VWS V14.00,2013-06-29 07:30:00,
2013-06-29 02:35:00,76.3,59.0,29.89,NE,37,0.0,0.0,55,0.00,,---,0.00,VWS V14.00,2013-06-29 07:35:00,
2013-06-29 02:40:00,76.2,59.4,29.89,NE,37,0.0,0.0,56,0.00,,---,0.00,VWS V14.00,2013-06-29 07:40:00,
2013-06-29 02:45:00,76.1,59.3,29.89,NE,37,0.0,0.0,56,0.00,,---,0.00,VWS V14.00,2013-06-29 07:45:00,
2013-06-29 02:50:00,76.0,59.2,29.89,NE,37,0.0,0.0,56,0.00,,---,0.00,VWS V14.00,2013-06-29 07:50:00,
2013-06-29 02:55:00,75.8,59.5,29.89,NE,37,0.0,0.0,57,0.00,,---,0.00,VWS V14.00,2013-06-29 07:55:00,
2013-06-29 03:00:00,75.8,59.5,29.90,NE,37,0.0,0.0,57,0.00,,---,0.00,VWS V14.00,2013-06-29 08:00:00,
2013-06-29 03:05:00,75.7,59.4,29.90,NE,37,0.0,0.0,57,0.00,,---,0.00,VWS V14.00,2013-06-29 08:05:00,
2013-06-29 03:10:00,75.5,59.2,29.90,NE,37,0.0,0.0,57,0.00,,---,0.00,VWS V14.00,2013-06-29 08:10:00,
2013-06-29 03:15:00,75.4,59.6,29.90,NE,37,0.0,0.0,58,0.00,,---,0.00,VWS V14.00,2013-06-29 08:15:00,
2013-06-29 03:20:00,75.2,59.4,29.90,NE,37,0.0,0.0,58,0.00,,---,0.00,VWS V14.00,2013-06-29 08:20:00,
2013-06-29 03:25:00,75.0,59.7,29.90,NE,37,0.0,0.0,59,0.00,,---,0.00,VWS V14.00,2013-06-29 08:25:00,
2013-06-29 03:30:00,74.8,60.0,29.90,NE,37,0.0,0.0,60,0.00,,---,0.00,VWS V14.00,2013-06-29 08:30:00,
2013-06-29 03:35:00,74.7,59.9,29.90,NE,37,0.0,0.0,60,0.00,,---,0.00,VWS V14.00,2013-06-29 08:35:00,
2013-06-29 03:40:00,74.7,59.9,29.90,NE,37,0.0,0.0,60,0.00,,---,0.00,VWS V14.00,2013-06-29 08:40:00,
2013-06-29 03:45:00,74.8,60.0,29.90,NE,37,0.0,0.0,60,0.00,,---,0.00,VWS V14.00,2013-06-29 08:45:00,
2013-06-29 03:50:00,74.9,60.1,29.90,NE,37,0.0,0.0,60,0.00,,---,0.00,VWS V14.00,2013-06-29 08:50:00,
2013-06-29 03:55:00,74.8,60.0,29.90,NE,37,0.0,0.0,60,0.00,,---,0.00,VWS V14.00,2013-06-29 08:55:00,
2013-06-29 04:00:00,74.7,59.9,29.90,NE,37,0.0,0.0,60,0.00,,---,0.00,VWS V14.00,2013-06-29 09:00:00,
2013-06-29 04:05:00,74.6,59.8,29.90,NE,37,0.0,0.0,60,0.00,,---,0.00,VWS V14.00,2013-06-29 09:05:00,
2013-06-29 04:10:00,74.4,60.1,29.90,NE,37,0.0,0.0,61,0.00,,---,0.00,VWS V14.00,2013-06-29 09:10:00,
2013-06-29 04:15:00,74.2,59.9,29.90,NE,37,0.0,0.0,61,0.00,,---,0.00,VWS V14.00,2013-06-29 09:15:00,
2013-06-29 04:20:00,74.1,60.3,29.90,NE,37,0.0,0.0,62,0.00,,---,0.00,VWS V14.00,2013-06-29 09:20:00,
2013-06-29 04:25:00,73.9,60.1,29.90,NE,37,0.0,0.0,62,0.00,,---,0.00,VWS V14.00,2013-06-29 09:25:00,
2013-06-29 04:30:00,73.9,60.5,29.90,NE,37,0.0,0.0,63,0.00,,---,0.00,VWS V14.00,2013-06-29 09:30:00,
2013-06-29 04:35:00,74.2,60.8,29.90,NE,37,0.0,0.0,63,0.00,,---,0.00,VWS V14.00,2013-06-29 09:35:00,
2013-06-29 04:40:00,74.5,60.6,29.90,NE,37,0.0,0.0,62,0.00,,---,0.00,VWS V14.00,2013-06-29 09:40:00,
2013-06-29 04:45:00,74.6,60.7,29.91,NE,37,0.0,0.0,62,0.00,,---,0.00,VWS V14.00,2013-06-29 09:45:00,
2013-06-29 04:50:00,74.4,61.0,29.91,NE,37,0.0,0.0,63,0.00,,---,0.00,VWS V14.00,2013-06-29 09:50:00,
2013-06-29 04:55:00,73.9,61.0,29.91,NE,37,0.0,0.0,64,0.00,,---,0.00,VWS V14.00,2013-06-29 09:55:00,
2013-06-29 05:00:00,73.7,60.8,29.91,NE,37,0.0,0.0,64,0.00,,---,0.00,VWS V14.00,2013-06-29 10:00:00,
2013-06-29 05:05:00,73.7,60.8,29.91,NE,37,0.0,0.0,64,0.00,,---,0.00,VWS V14.00,2013-06-29 10:05:00,
2013-06-29 05:10:00,73.7,60.8,29.91,NE,37,0.0,0.0,64,0.00,,---,0.00,VWS V14.00,2013-06-29 10:10:00,
2013-06-29 05:15:00,73.7,60.8,29.91,NE,37,0.0,0.0,64,0.00,,---,0.00,VWS V14.00,2013-06-29 10:15:00,
2013-06-29 05:20:00,73.7,60.8,29.91,NE,37,0.0,0.0,64,0.00,,---,0.00,VWS V14.00,2013-06-29 10:20:00,
2013-06-29 05:25:00,73.7,60.8,29.91,NE,37,0.0,0.0,64,0.00,,---,0.00,VWS V14.00,2013-06-29 10:25:00,
2013-06-29 05:30:00,73.7,60.8,29.92,NE,37,0.0,0.0,64,0.00,,---,0.00,VWS V14.00,2013-06-29 10:30:00,
2013-06-29 05:35:00,73.7,60.8,29.92,NE,37,0.0,0.0,64,0.00,,---,0.00,VWS V14.00,2013-06-29 10:35:00,
2013-06-29 05:40:00,73.7,60.8,29.92,NE,37,0.0,0.0,64,0.00,,---,0.00,VWS V14.00,2013-06-29 10:40:00,
2013-06-29 05:45:00,73.7,60.8,29.91,NE,37,0.0,0.0,64,0.00,,---,0.00,VWS V14.00,2013-06-29 10:45:00,
2013-06-29 05:50:00,73.7,60.8,29.91,NE,37,0.0,0.0,64,0.00,,---,0.00,VWS V14.00,2013-06-29 10:50:00,
2013-06-29 05:55:00,73.7,60.8,29.91,NE,37,0.0,0.0,64,0.00,,---,0.00,VWS V14.00,2013-06-29 10:55:00,
2013-06-29 06:00:00,73.7,60.8,29.91,NE,37,0.0,0.0,64,0.00,,---,0.00,VWS V14.00,2013-06-29 11:00:00,
2013-06-29 06:05:00,73.7,60.8,29.91,NE,37,0.0,0.0,64,0.00,,---,0.00,VWS V14.00,2013-06-29 11:05:00,
2013-06-29 06:10:00,73.7,60.8,29.91,NE,37,0.0,0.0,64,0.00,,---,0.00,VWS V14.00,2013-06-29 11:10:00,
2013-06-29 06:15:00,73.7,60.8,29.91,NE,37,0.0,0.0,64,0.00,,---,0.00,VWS V14.00,2013-06-29 11:15:00,
2013-06-29 06:20:00,73.7,60.8,29.91,NE,37,0.0,0.0,64,0.00,,---,0.00,VWS V14.00,2013-06-29 11:20:00,
2013-06-29 06:25:00,73.7,60.8,29.91,NE,37,0.0,0.0,64,0.00,,---,0.00,VWS V14.00,2013-06-29 11:25:00,
2013-06-29 06:30:00,73.7,60.8,29.91,NE,37,0.0,0.0,64,0.00,,---,0.00,VWS V14.00,2013-06-29 11:30:00,
2013-06-29 06:35:00,73.7,60.8,29.91,NE,37,0.0,0.0,64,0.00,,---,0.00,VWS V14.00,2013-06-29 11:35:00,
2013-06-29 06:40:00,73.7,60.8,29.91,NE,37,0.0,0.0,64,0.00,,---,0.00,VWS V14.00,2013-06-29 11:40:00,
2013-06-29 06:45:00,73.7,60.8,29.92,NE,37,0.0,0.0,64,0.00,,---,0.00,VWS V14.00,2013-06-29 11:45:00,
2013-06-29 06:50:00,73.7,60.8,29.92,NE,37,0.0,0.0,64,0.00,,---,0.00,VWS V14.00,2013-06-29 11:50:00,
2013-06-29 06:55:00,73.7,60.8,29.92,NE,37,0.0,0.0,64,0.00,,---,0.00,VWS V14.00,2013-06-29 11:55:00,
2013-06-29 07:01:00,73.7,60.8,29.91,NE,37,0.0,0.0,64,0.00,,---,0.00,VWS V14.00,2013-06-29 12:01:00,
2013-06-29 07:06:00,73.7,60.8,29.91,NE,37,0.0,0.0,64,0.00,,---,0.00,VWS V14.00,2013-06-29 12:06:00,
2013-06-29 07:12:00,73.7,60.8,29.91,NE,37,0.0,0.0,64,0.00,,---,0.00,VWS V14.00,2013-06-29 12:12:00,
2013-06-29 07:18:00,73.7,60.8,29.91,NE,37,0.0,0.0,64,0.00,,---,0.00,VWS V14.00,2013-06-29 12:18:00,
2013-06-29 07:24:00,73.7,62.5,29.91,NNE,30,0.0,0.0,68,0.00,,---,0.00,VWS V14.00,2013-06-29 12:24:00,
2013-06-29 07:29:00,73.7,62.5,29.92,NNE,30,0.0,0.0,68,0.00,,---,0.00,VWS V14.00,2013-06-29 12:29:00,
2013-06-29 07:34:00,73.8,62.2,29.92,NNE,30,0.0,0.0,67,0.00,,---,0.00,VWS V14.00,2013-06-29 12:34:00,
2013-06-29 07:39:00,74.0,62.8,29.92,NNE,30,0.0,0.0,68,0.00,,---,0.00,VWS V14.00,2013-06-29 12:39:00,
2013-06-29 07:44:00,74.4,62.3,29.92,NNE,14,0.0,0.0,66,0.00,,---,0.00,VWS V14.00,2013-06-29 12:44:00,
2013-06-29 07:49:00,74.9,62.3,29.92,NNE,20,0.0,1.0,65,0.00,,---,0.00,VWS V14.00,2013-06-29 12:49:00,
2013-06-29 07:54:00,75.4,61.9,29.92,NE,42,0.0,0.0,63,0.00,,---,0.00,VWS V14.00,2013-06-29 12:54:00,
2013-06-29 07:59:00,75.8,61.9,29.92,NE,39,0.0,0.0,62,0.00,,---,0.00,VWS V14.00,2013-06-29 12:59:00,
2013-06-29 08:04:00,76.3,61.9,29.92,NE,39,0.0,4.0,61,0.00,,---,0.00,VWS V14.00,2013-06-29 13:04:00,
2013-06-29 08:09:00,76.6,61.7,29.92,NNE,20,0.0,0.0,60,0.00,,---,0.00,VWS V14.00,2013-06-29 13:09:00,
2013-06-29 08:14:00,76.9,62.0,29.92,NE,51,0.0,0.0,60,0.00,,---,0.00,VWS V14.00,2013-06-29 13:14:00,
2013-06-29 08:19:00,77.3,62.3,29.92,NE,51,0.0,0.0,60,0.00,,---,0.00,VWS V14.00,2013-06-29 13:19:00,
2013-06-29 08:24:00,77.8,61.4,29.92,NE,51,2.0,2.0,57,0.00,,---,0.00,VWS V14.00,2013-06-29 13:24:00,
2013-06-29 08:29:00,78.1,61.6,29.92,NE,34,0.0,0.0,57,0.00,,---,0.00,VWS V14.00,2013-06-29 13:29:00,
2013-06-29 08:34:00,78.7,61.2,29.92,NNE,32,0.0,3.0,55,0.00,,---,0.00,VWS V14.00,2013-06-29 13:34:00,
2013-06-29 08:39:00,78.9,60.9,29.92,NNE,30,0.0,1.0,54,0.00,,---,0.00,VWS V14.00,2013-06-29 13:39:00,
2013-06-29 08:45:00,79.1,60.5,29.92,NE,47,0.0,0.0,53,0.00,,---,0.00,VWS V14.00,2013-06-29 13:45:00,
2013-06-29 08:50:00,79.6,61.5,29.92,NE,46,0.0,1.0,54,0.00,,---,0.00,VWS V14.00,2013-06-29 13:50:00,
2013-06-29 08:55:00,80.3,61.1,29.92,NE,41,0.0,1.0,52,0.00,,---,0.00,VWS V14.00,2013-06-29 13:55:00,
2013-06-29 09:00:00,80.8,60.4,29.92,NE,35,4.0,5.0,50,0.00,,---,0.00,VWS V14.00,2013-06-29 14:00:00,
2013-06-29 09:05:00,80.9,59.4,29.92,NE,45,1.0,6.0,48,0.00,,---,0.00,VWS V14.00,2013-06-29 14:05:00,
2013-06-29 09:10:00,80.9,60.0,29.92,NNE,29,0.0,2.0,49,0.00,,---,0.00,VWS V14.00,2013-06-29 14:10:00,
2013-06-29 09:15:00,81.4,59.8,29.92,NE,34,0.0,4.0,48,0.00,,---,0.00,VWS V14.00,2013-06-29 14:15:00,
2013-06-29 09:20:00,81.5,59.9,29.92,NNE,23,2.0,4.0,48,0.00,,---,0.00,VWS V14.00,2013-06-29 14:20:00,
2013-06-29 09:25:00,81.5,59.9,29.92,NE,41,0.0,4.0,48,0.00,,---,0.00,VWS V14.00,2013-06-29 14:25:00,
2013-06-29 09:30:00,81.8,60.2,29.92,NE,42,0.0,3.0,48,0.00,,---,0.00,VWS V14.00,2013-06-29 14:30:00,
2013-06-29 09:35:00,82.0,60.4,29.92,NE,35,0.0,0.0,48,0.00,,---,0.00,VWS V14.00,2013-06-29 14:35:00,
2013-06-29 09:41:00,82.5,60.3,29.92,NE,39,0.0,4.0,47,0.00,,---,0.00,VWS V14.00,2013-06-29 14:41:00,
2013-06-29 09:46:00,82.5,60.3,29.92,NNE,30,0.0,0.0,47,0.00,,---,0.00,VWS V14.00,2013-06-29 14:46:00,
2013-06-29 09:51:00,82.3,59.5,29.92,NNE,29,1.0,3.0,46,0.00,,---,0.00,VWS V14.00,2013-06-29 14:51:00,
2013-06-29 09:56:00,82.5,59.7,29.92,NNE,22,0.0,4.0,46,0.00,,---,0.00,VWS V14.00,2013-06-29 14:56:00,
2013-06-29 10:01:00,83.0,60.1,29.92,NE,34,1.0,1.0,46,0.00,,---,0.00,VWS V14.00,2013-06-29 15:01:00,
2013-06-29 10:06:00,83.3,59.8,29.92,NE,37,0.0,4.0,45,0.00,,---,0.00,VWS V14.00,2013-06-29 15:06:00,
2013-06-29 10:11:00,83.3,59.8,29.92,NE,53,0.0,1.0,45,0.00,,---,0.00,VWS V14.00,2013-06-29 15:11:00,
2013-06-29 10:16:00,83.7,59.5,29.92,NE,41,7.0,7.0,44,0.00,,---,0.00,VWS V14.00,2013-06-29 15:16:00,
2013-06-29 10:21:00,84.2,58.6,29.92,NNE,20,0.0,3.0,42,0.00,,---,0.00,VWS V14.00,2013-06-29 15:21:00,
2013-06-29 10:26:00,84.7,59.1,29.92,NE,51,1.0,3.0,42,0.00,,---,0.00,VWS V14.00,2013-06-29 15:26:00,
2013-06-29 10:31:00,85.2,59.5,29.92,NE,49,0.0,4.0,42,0.00,,---,0.00,VWS V14.00,2013-06-29 15:31:00,
2013-06-29 10:37:00,85.4,58.4,29.92,North,352,0.0,1.0,40,0.00,,---,0.00,VWS V14.00,2013-06-29 15:37:00,
2013-06-29 10:42:00,85.9,58.8,29.92,NE,44,2.0,2.0,40,0.00,,---,0.00,VWS V14.00,2013-06-29 15:42:00,
2013-06-29 10:47:00,85.9,58.1,29.92,NE,46,4.0,5.0,39,0.00,,---,0.00,VWS V14.00,2013-06-29 15:47:00,
2013-06-29 10:52:00,85.9,58.1,29.92,NE,39,2.0,2.0,39,0.00,,---,0.00,VWS V14.00,2013-06-29 15:52:00,
2013-06-29 10:57:00,86.1,57.5,29.91,NE,37,2.0,5.0,38,0.00,,---,0.00,VWS V14.00,2013-06-29 15:57:00,
2013-06-29 11:02:00,86.4,56.3,29.91,NE,47,4.0,8.0,36,0.00,,---,0.00,VWS V14.00,2013-06-29 16:02:00,
2013-06-29 11:07:00,86.6,55.7,29.91,East,79,2.0,3.0,35,0.00,,---,0.00,VWS V14.00,2013-06-29 16:07:00,
2013-06-29 11:12:00,86.7,55.8,29.91,NE,51,0.0,5.0,35,0.00,,---,0.00,VWS V14.00,2013-06-29 16:12:00,
2013-06-29 11:17:00,86.7,54.2,29.91,NE,41,4.0,10.0,33,0.00,,---,0.00,VWS V14.00,2013-06-29 16:17:00,
2013-06-29 11:22:00,86.8,53.4,29.91,NNW,341,0.0,9.0,32,0.00,,---,0.00,VWS V14.00,2013-06-29 16:22:00,
2013-06-29 11:27:00,86.5,53.2,29.91,NE,56,3.0,7.0,32,0.00,,---,0.00,VWS V14.00,2013-06-29 16:27:00,
2013-06-29 11:33:00,86.5,54.0,29.91,NE,42,12.0,15.0,33,0.00,,---,0.00,VWS V14.00,2013-06-29 16:33:00,
2013-06-29 11:38:00,86.2,54.6,29.91,WNW,297,1.0,12.0,34,0.00,,---,0.00,VWS V14.00,2013-06-29 16:38:00,
2013-06-29 11:43:00,86.5,54.0,29.91,NNE,25,0.0,7.0,33,0.00,,---,0.00,VWS V14.00,2013-06-29 16:43:00,
2013-06-29 11:48:00,86.9,55.2,29.91,NNE,33,4.0,4.0,34,0.00,,---,0.00,VWS V14.00,2013-06-29 16:48:00,
2013-06-29 11:53:00,86.9,55.2,29.91,NE,44,3.0,5.0,34,0.00,,---,0.00,VWS V14.00,2013-06-29 16:53:00,
2013-06-29 11:58:00,87.3,56.3,29.91,NE,53,9.0,9.0,35,0.00,,---,0.00,VWS V14.00,2013-06-29 16:58:00,
2013-06-29 12:04:00,87.8,55.2,29.91,NW,309,1.0,17.0,33,0.00,,---,0.00,VWS V14.00,2013-06-29 17:04:00,
2013-06-29 12:09:00,87.2,54.6,29.91,North,9,0.0,11.0,33,0.00,,---,0.00,VWS V14.00,2013-06-29 17:09:00,
2013-06-29 12:14:00,87.9,54.4,29.91,North,11,1.0,5.0,32,0.00,,---,0.00,VWS V14.00,2013-06-29 17:14:00,
2013-06-29 12:19:00,88.5,54.9,29.91,NNE,31,0.0,6.0,32,0.00,,---,0.00,VWS V14.00,2013-06-29 17:19:00,
2013-06-29 12:24:00,89.2,55.5,29.91,NNE,24,2.0,6.0,32,0.00,,---,0.00,VWS V14.00,2013-06-29 17:24:00,
2013-06-29 12:29:00,89.1,55.4,29.90,North,359,1.0,6.0,32,0.00,,---,0.00,VWS V14.00,2013-06-29 17:29:00,
2013-06-29 12:35:00,88.2,54.7,29.90,North,1,0.0,11.0,32,0.00,,---,0.00,VWS V14.00,2013-06-29 17:35:00,
2013-06-29 12:40:00,88.4,54.8,29.90,NNE,27,0.0,8.0,32,0.00,,---,0.00,VWS V14.00,2013-06-29 17:40:00,
2013-06-29 12:45:00,87.8,54.3,29.90,NNE,18,2.0,12.0,32,0.00,,---,0.00,VWS V14.00,2013-06-29 17:45:00,
2013-06-29 12:50:00,87.8,54.3,29.90,NNE,14,15.0,16.0,32,0.00,,---,0.00,VWS V14.00,2013-06-29 17:50:00,
2013-06-29 12:55:00,88.3,54.7,29.90,NNE,15,18.0,18.0,32,0.00,,---,0.00,VWS V14.00,2013-06-29 17:55:00,
2013-06-29 13:00:00,88.1,54.6,29.90,NNE,25,7.0,12.0,32,0.00,,---,0.00,VWS V14.00,2013-06-29 18:00:00,
2013-06-29 13:05:00,88.2,56.3,29.90,NE,42,2.0,10.0,34,0.00,,---,0.00,VWS V14.00,2013-06-29 18:05:00,
2013-06-29 13:10:00,89.1,56.3,29.90,NNE,14,6.0,7.0,33,0.00,,---,0.00,VWS V14.00,2013-06-29 18:10:00,
2013-06-29 13:15:00,89.5,54.9,29.89,NNE,23,1.0,3.0,31,0.00,,---,0.00,VWS V14.00,2013-06-29 18:15:00,
2013-06-29 13:21:00,89.9,56.1,29.89,NNE,32,0.0,1.0,32,0.00,,---,0.00,VWS V14.00,2013-06-29 18:21:00,
2013-06-29 13:26:00,89.2,56.4,29.89,SW,217,0.0,2.0,33,0.00,,---,0.00,VWS V14.00,2013-06-29 18:26:00,
2013-06-29 13:31:00,89.1,55.4,29.89,NE,42,0.0,5.0,32,0.00,,---,0.00,VWS V14.00,2013-06-29 18:31:00,
2013-06-29 13:37:00,89.2,55.5,29.89,NNE,17,4.0,14.0,32,0.00,,---,0.00,VWS V14.00,2013-06-29 18:37:00,
2013-06-29 13:42:00,89.0,55.3,29.88,NNE,30,0.0,5.0,32,0.00,,---,0.00,VWS V14.00,2013-06-29 18:42:00,
2013-06-29 13:47:00,89.6,57.5,29.88,WNW,287,0.0,5.0,34,0.00,,---,0.00,VWS V14.00,2013-06-29 18:47:00,
2013-06-29 13:52:00,89.9,57.0,29.88,NNW,330,1.0,1.0,33,0.00,,---,0.00,VWS V14.00,2013-06-29 18:52:00,
2013-06-29 13:57:00,90.4,55.7,29.88,NE,36,6.0,7.0,31,0.00,,---,0.00,VWS V14.00,2013-06-29 18:57:00,
2013-06-29 14:02:00,90.0,57.1,29.88,NNE,33,0.0,1.0,33,0.00,,---,0.00,VWS V14.00,2013-06-29 19:02:00,
2013-06-29 14:08:00,90.8,56.9,29.88,NE,49,0.0,6.0,32,0.00,,---,0.00,VWS V14.00,2013-06-29 19:08:00,
2013-06-29 14:13:00,90.5,55.8,29.88,NE,37,1.0,6.0,31,0.00,,---,0.00,VWS V14.00,2013-06-29 19:13:00,
2013-06-29 14:18:00,91.2,56.4,29.88,NNE,33,5.0,14.0,31,0.00,,---,0.00,VWS V14.00,2013-06-29 19:18:00,
2013-06-29 14:23:00,90.1,56.3,29.88,NNE,20,2.0,7.0,32,0.00,,---,0.00,VWS V14.00,2013-06-29 19:23:00,
2013-06-29 14:28:00,89.9,56.1,29.88,North,1,0.0,10.0,32,0.00,,---,0.00,VWS V14.00,2013-06-29 19:28:00,
2013-06-29 14:33:00,89.9,55.2,29.88,West,264,0.0,5.0,31,0.00,,---,0.00,VWS V14.00,2013-06-29 19:33:00,
2013-06-29 14:38:00,89.7,56.0,29.88,NNE,31,0.0,4.0,32,0.00,,---,0.00,VWS V14.00,2013-06-29 19:38:00,
2013-06-29 14:44:00,90.2,56.4,29.87,NNE,30,0.0,2.0,32,0.00,,---,0.00,VWS V14.00,2013-06-29 19:44:00,
2013-06-29 14:50:00,91.2,56.4,29.87,NNW,338,0.0,0.0,31,0.00,,---,0.00,VWS V14.00,2013-06-29 19:50:00,
2013-06-29 14:54:00,91.7,56.8,29.87,ENE,65,0.0,2.0,31,0.00,,---,0.00,VWS V14.00,2013-06-29 19:54:00,
2013-06-29 15:00:00,91.8,55.0,29.87,North,1,1.0,12.0,29,0.00,,---,0.00,VWS V14.00,2013-06-29 20:00:00,
2013-06-29 15:05:00,90.8,54.2,29.87,NNE,15,11.0,12.0,29,0.00,,---,0.00,VWS V14.00,2013-06-29 20:05:00,
2013-06-29 15:10:00,90.6,55.8,29.87,NE,46,6.0,10.0,31,0.00,,---,0.00,VWS V14.00,2013-06-29 20:10:00,
2013-06-29 15:15:00,90.8,56.0,29.87,NNE,30,0.0,3.0,31,0.00,,---,0.00,VWS V14.00,2013-06-29 20:15:00,
2013-06-29 15:20:00,90.4,54.8,29.87,NNE,15,9.0,9.0,30,0.00,,---,0.00,VWS V14.00,2013-06-29 20:20:00,
2013-06-29 15:25:00,90.8,54.2,29.87,NNE,32,0.0,14.0,29,0.00,,---,0.00,VWS V14.00,2013-06-29 20:25:00,
2013-06-29 15:31:00,91.6,55.8,29.86,North,11,2.0,5.0,30,0.00,,---,0.00,VWS V14.00,2013-06-29 20:31:00,
2013-06-29 15:36:00,91.4,55.6,29.86,West,281,0.0,1.0,30,0.00,,---,0.00,VWS V14.00,2013-06-29 20:36:00,
2013-06-29 15:41:00,91.5,56.6,29.86,NE,45,0.0,3.0,31,0.00,,---,0.00,VWS V14.00,2013-06-29 20:41:00,
2013-06-29 15:46:00,91.4,56.5,29.86,NE,35,1.0,9.0,31,0.00,,---,0.00,VWS V14.00,2013-06-29 20:46:00,
2013-06-29 15:51:00,90.6,55.8,29.86,NNE,32,0.0,11.0,31,0.00,,---,0.00,VWS V14.00,2013-06-29 20:51:00,
2013-06-29 15:56:00,90.3,55.6,29.86,NE,39,11.0,14.0,31,0.00,,---,0.00,VWS V14.00,2013-06-29 20:56:00,
2013-06-29 16:01:00,90.8,56.9,29.85,NNE,27,0.0,2.0,32,0.00,,---,0.00,VWS V14.00,2013-06-29 21:01:00,
2013-06-29 16:06:00,90.8,55.1,29.85,NNE,30,0.0,4.0,30,0.00,,---,0.00,VWS V14.00,2013-06-29 21:06:00,
2013-06-29 16:11:00,90.9,55.2,29.85,NNE,32,1.0,12.0,30,0.00,,---,0.00,VWS V14.00,2013-06-29 21:11:00,
2013-06-29 16:16:00,90.3,55.6,29.85,NE,41,0.0,3.0,31,0.00,,---,0.00,VWS V14.00,2013-06-29 21:16:00,
2013-06-29 16:21:00,90.4,55.7,29.85,NE,53,0.0,2.0,31,0.00,,---,0.00,VWS V14.00,2013-06-29 21:21:00,
2013-06-29 16:26:00,90.4,55.7,29.85,NNE,22,3.0,8.0,31,0.00,,---,0.00,VWS V14.00,2013-06-29 21:26:00,
2013-06-29 16:31:00,90.4,56.6,29.84,NNE,27,1.0,3.0,32,0.00,,---,0.00,VWS V14.00,2013-06-29 21:31:00,
2013-06-29 16:37:00,90.2,54.6,29.84,NE,48,4.0,8.0,30,0.00,,---,0.00,VWS V14.00,2013-06-29 21:37:00,
2013-06-29 16:43:00,89.3,55.6,29.84,NNE,23,11.0,13.0,32,0.00,,---,0.00,VWS V14.00,2013-06-29 21:43:00,
2013-06-29 16:48:00,89.0,55.3,29.84,NE,40,0.0,7.0,32,0.00,,---,0.00,VWS V14.00,2013-06-29 21:48:00,
2013-06-29 16:53:00,89.3,55.6,29.84,North,4,1.0,5.0,32,0.00,,---,0.00,VWS V14.00,2013-06-29 21:53:00,
2013-06-29 16:58:00,89.3,55.6,29.84,NE,45,0.0,6.0,32,0.00,,---,0.00,VWS V14.00,2013-06-29 21:58:00,
2013-06-29 17:04:00,89.2,56.4,29.84,North,359,0.0,3.0,33,0.00,,---,0.00,VWS V14.00,2013-06-29 22:04:00,
2013-06-29 17:09:00,89.7,56.8,29.84,North,0,1.0,4.0,33,0.00,,---,0.00,VWS V14.00,2013-06-29 22:09:00,
2013-06-29 17:14:00,90.5,55.8,29.83,North,1,16.0,16.0,31,0.00,,---,0.00,VWS V14.00,2013-06-29 22:14:00,
2013-06-29 17:19:00,90.0,55.3,29.83,NE,49,10.0,14.0,31,0.00,,---,0.00,VWS V14.00,2013-06-29 22:19:00,
2013-06-29 17:24:00,89.5,55.8,29.83,NE,41,0.0,7.0,32,0.00,,---,0.00,VWS V14.00,2013-06-29 22:24:00,
2013-06-29 17:29:00,89.6,55.9,29.83,NNE,32,0.0,2.0,32,0.00,,---,0.00,VWS V14.00,2013-06-29 22:29:00,
2013-06-29 17:34:00,89.9,56.1,29.83,NNE,31,5.0,10.0,32,0.00,,---,0.00,VWS V14.00,2013-06-29 22:34:00,
2013-06-29 17:39:00,90.2,57.2,29.83,NNE,32,0.0,3.0,33,0.00,,---,0.00,VWS V14.00,2013-06-29 22:39:00,
2013-06-29 17:45:00,90.3,55.6,29.82,NNE,18,5.0,13.0,31,0.00,,---,0.00,VWS V14.00,2013-06-29 22:45:00,
2013-06-29 17:50:00,90.2,56.4,29.82,WSW,257,2.0,3.0,32,0.00,,---,0.00,VWS V14.00,2013-06-29 22:50:00,
2013-06-29 17:55:00,90.5,56.6,29.82,NE,39,0.0,3.0,32,0.00,,---,0.00,VWS V14.00,2013-06-29 22:55:00,
2013-06-29 18:01:00,90.1,56.3,29.82,NNE,30,2.0,7.0,32,0.00,,---,0.00,VWS V14.00,2013-06-29 23:01:00,
2013-06-29 18:06:00,89.9,56.1,29.82,NE,37,4.0,5.0,32,0.00,,---,0.00,VWS V14.00,2013-06-29 23:06:00,
2013-06-29 18:11:00,90.0,56.2,29.82,North,352,0.0,0.0,32,0.00,,---,0.00,VWS V14.00,2013-06-29 23:11:00,
2013-06-29 18:16:00,90.3,55.6,29.81,NNE,24,13.0,13.0,31,0.00,,---,0.00,VWS V14.00,2013-06-29 23:16:00,
2013-06-29 18:21:00,89.6,55.9,29.81,NE,51,3.0,9.0,32,0.00,,---,0.00,VWS V14.00,2013-06-29 23:21:00,
2013-06-29 18:26:00,89.4,55.7,29.81,NE,45,4.0,9.0,32,0.00,,---,0.00,VWS V14.00,2013-06-29 23:26:00,
2013-06-29 18:31:00,89.5,56.6,29.81,North,10,10.0,10.0,33,0.00,,---,0.00,VWS V14.00,2013-06-29 23:31:00,
2013-06-29 18:36:00,89.3,56.5,29.81,NNE,25,2.0,4.0,33,0.00,,---,0.00,VWS V14.00,2013-06-29 23:36:00,
2013-06-29 18:41:00,89.4,55.7,29.81,NE,35,2.0,6.0,32,0.00,,---,0.00,VWS V14.00,2013-06-29 23:41:00,
2013-06-29 18:46:00,89.3,55.6,29.81,North,0,0.0,3.0,32,0.00,,---,0.00,VWS V14.00,2013-06-29 23:46:00,
2013-06-29 18:48:00,89.5,55.8,29.81,ENE,65,4.0,7.0,32,0.00,,---,0.00,VWS V14.00,2013-06-29 23:48:00,
2013-06-29 18:53:00,89.7,56.0,29.81,NE,46,0.0,3.0,32,0.00,,---,0.00,VWS V14.00,2013-06-29 23:53:00,
2013-06-29 18:58:00,89.6,55.9,29.81,NNE,17,2.0,13.0,32,0.00,,---,0.00,VWS V14.00,2013-06-29 23:58:00,
2013-06-29 19:03:00,89.1,55.4,29.81,NE,45,0.0,8.0,32,0.00,,---,0.00,VWS V14.00,2013-06-30 00:03:00,
2013-06-29 19:08:00,88.7,55.9,29.81,ENE,65,0.0,6.0,33,0.00,,---,0.00,VWS V14.00,2013-06-30 00:08:00,
2013-06-29 19:13:00,88.6,55.8,29.81,NNE,13,4.0,7.0,33,0.00,,---,0.00,VWS V14.00,2013-06-30 00:13:00,
2013-06-29 19:18:00,88.4,54.8,29.81,NE,41,0.0,6.0,32,0.00,,---,0.00,VWS V14.00,2013-06-30 00:18:00,
2013-06-29 19:23:00,88.3,55.6,29.81,NE,51,4.0,7.0,33,0.00,,---,0.00,VWS V14.00,2013-06-30 00:23:00,
2013-06-29 19:28:00,88.1,56.2,29.81,NNE,18,6.0,6.0,34,0.00,,---,0.00,VWS V14.00,2013-06-30 00:28:00,
2013-06-29 19:33:00,87.9,56.1,29.81,NE,41,3.0,7.0,34,0.00,,---,0.00,VWS V14.00,2013-06-30 00:33:00,
2013-06-29 19:39:00,87.8,56.0,29.81,NNE,24,2.0,4.0,34,0.00,,---,0.00,VWS V14.00,2013-06-30 00:39:00,
2013-06-29 19:44:00,87.7,55.9,29.81,NNE,25,3.0,7.0,34,0.00,,---,0.00,VWS V14.00,2013-06-30 00:44:00,
2013-06-29 19:49:00,87.6,55.8,29.81,NNE,13,2.0,4.0,34,0.00,,---,0.00,VWS V14.00,2013-06-30 00:49:00,
2013-06-29 19:54:00,87.5,56.5,29.81,NNE,20,0.0,0.0,35,0.00,,---,0.00,VWS V14.00,2013-06-30 00:54:00,
2013-06-29 19:59:00,87.2,56.2,29.81,NE,36,0.0,2.0,35,0.00,,---,0.00,VWS V14.00,2013-06-30 00:59:00,
2013-06-29 20:04:00,87.0,56.1,29.81,NNE,22,0.0,0.0,35,0.00,,---,0.00,VWS V14.00,2013-06-30 01:04:00,
2013-06-29 20:09:00,86.9,56.8,29.81,NE,41,0.0,1.0,36,0.00,,---,0.00,VWS V14.00,2013-06-30 01:09:00,
2013-06-29 20:14:00,86.6,56.5,29.81,NNE,31,0.0,0.0,36,0.00,,---,0.00,VWS V14.00,2013-06-30 01:14:00,
2013-06-29 20:19:00,86.5,56.4,29.81,NNE,18,1.0,6.0,36,0.00,,---,0.00,VWS V14.00,2013-06-30 01:19:00,
2013-06-29 20:24:00,86.4,56.3,29.81,NNE,18,0.0,0.0,36,0.00,,---,0.00,VWS V14.00,2013-06-30 01:24:00,
2013-06-29 20:29:00,86.1,56.0,29.82,NNE,33,0.0,6.0,36,0.00,,---,0.00,VWS V14.00,2013-06-30 01:29:00,
2013-06-29 20:34:00,85.9,56.6,29.82,NNE,13,3.0,6.0,37,0.00,,---,0.00,VWS V14.00,2013-06-30 01:34:00,
2013-06-29 20:39:00,85.6,56.4,29.82,NNE,26,1.0,12.0,37,0.00,,---,0.00,VWS V14.00,2013-06-30 01:39:00,
2013-06-29 20:44:00,85.3,56.1,29.82,NNE,27,9.0,9.0,37,0.00,,---,0.00,VWS V14.00,2013-06-30 01:44:00,
2013-06-29 20:49:00,85.1,55.9,29.82,NNE,26,11.0,12.0,37,0.00,,---,0.00,VWS V14.00,2013-06-30 01:49:00,
2013-06-29 20:54:00,84.9,55.8,29.82,NNE,23,9.0,15.0,37,0.00,,---,0.00,VWS V14.00,2013-06-30 01:54:00,
2013-06-29 20:59:00,84.7,56.3,29.83,North,9,0.0,5.0,38,0.00,,---,0.00,VWS V14.00,2013-06-30 01:59:00,
2013-06-29 21:04:00,84.5,56.1,29.83,North,11,0.0,12.0,38,0.00,,---,0.00,VWS V14.00,2013-06-30 02:04:00,
2013-06-29 21:09:00,84.3,56.0,29.83,NNE,32,3.0,3.0,38,0.00,,---,0.00,VWS V14.00,2013-06-30 02:09:00,
2013-06-29 21:14:00,84.2,55.9,29.83,NNE,29,0.0,6.0,38,0.00,,---,0.00,VWS V14.00,2013-06-30 02:14:00,
2013-06-29 21:19:00,83.9,55.6,29.83,NE,35,1.0,9.0,38,0.00,,---,0.00,VWS V14.00,2013-06-30 02:19:00,
2013-06-29 21:24:00,83.6,55.3,29.83,NE,53,10.0,13.0,38,0.00,,---,0.00,VWS V14.00,2013-06-30 02:24:00,
2013-06-29 21:29:00,83.4,55.2,29.84,NNE,32,1.0,2.0,38,0.00,,---,0.00,VWS V14.00,2013-06-30 02:29:00,
2013-06-29 21:34:00,83.1,54.9,29.84,NNE,27,2.0,5.0,38,0.00,,---,0.00,VWS V14.00,2013-06-30 02:34:00,
2013-06-29 21:39:00,82.8,54.6,29.84,NNE,24,0.0,3.0,38,0.00,,---,0.00,VWS V14.00,2013-06-30 02:39:00,
2013-06-29 21:44:00,82.6,54.5,29.84,NNE,29,1.0,3.0,38,0.00,,---,0.00,VWS V14.00,2013-06-30 02:44:00,
2013-06-29 21:49:00,82.4,55.0,29.84,North,6,0.0,2.0,39,0.00,,---,0.00,VWS V14.00,2013-06-30 02:49:00,
2013-06-29 21:54:00,82.3,54.2,29.84,NNE,17,0.0,6.0,38,0.00,,---,0.00,VWS V14.00,2013-06-30 02:54:00,
2013-06-29 21:59:00,82.2,54.8,29.85,NNE,22,0.0,0.0,39,0.00,,---,0.00,VWS V14.00,2013-06-30 02:59:00,
2013-06-29 22:04:00,81.9,53.8,29.85,NNE,32,1.0,5.0,38,0.00,,---,0.00,VWS V14.00,2013-06-30 03:04:00,
2013-06-29 22:09:00,81.7,54.4,29.85,North,5,3.0,5.0,39,0.00,,---,0.00,VWS V14.00,2013-06-30 03:09:00,
2013-06-29 22:14:00,81.5,54.2,29.85,NNE,16,0.0,3.0,39,0.00,,---,0.00,VWS V14.00,2013-06-30 03:14:00,
2013-06-29 22:19:00,81.3,54.0,29.85,NNE,23,0.0,0.0,39,0.00,,---,0.00,VWS V14.00,2013-06-30 03:19:00,
2013-06-29 22:24:00,81.1,53.8,29.85,NNE,29,0.0,0.0,39,0.00,,---,0.00,VWS V14.00,2013-06-30 03:24:00,
2013-06-29 22:29:00,80.9,53.7,29.86,NNE,28,0.0,1.0,39,0.00,,---,0.00,VWS V14.00,2013-06-30 03:29:00,
2013-06-29 22:34:00,80.8,53.6,29.86,NNE,30,1.0,3.0,39,0.00,,---,0.00,VWS V14.00,2013-06-30 03:34:00,
2013-06-29 22:39:00,80.7,54.2,29.86,NNE,29,0.0,1.0,40,0.00,,---,0.00,VWS V14.00,2013-06-30 03:39:00,
2013-06-29 22:45:00,80.5,54.0,29.86,NNE,13,0.0,6.0,40,0.00,,---,0.00,VWS V14.00,2013-06-30 03:45:00,
2013-06-29 22:50:00,80.3,54.5,29.86,NNE,21,1.0,1.0,41,0.00,,---,0.00,VWS V14.00,2013-06-30 03:50:00,
2013-06-29 22:55:00,80.1,54.3,29.86,NE,37,0.0,0.0,41,0.00,,---,0.00,VWS V14.00,2013-06-30 03:55:00,
2013-06-29 23:00:00,79.8,54.0,29.86,NE,36,0.0,1.0,41,0.00,,---,0.00,VWS V14.00,2013-06-30 04:00:00,
2013-06-29 23:02:00,79.7,53.9,29.86,NNE,27,0.0,3.0,41,0.00,,---,0.00,VWS V14.00,2013-06-30 04:02:00,
2013-06-29 23:03:00,79.7,53.9,29.86,NNE,25,2.0,4.0,41,0.00,,---,0.00,VWS V14.00,2013-06-30 04:03:00,
2013-06-29 23:05:00,79.6,53.8,29.86,NNE,30,1.0,3.0,41,0.00,,---,0.00,VWS V14.00,2013-06-30 04:05:00,
2013-06-29 23:08:00,79.6,53.8,29.86,NNE,27,1.0,4.0,41,0.00,,---,0.00,VWS V14.00,2013-06-30 04:08:00,
2013-06-29 23:13:00,79.4,53.7,29.87,NNE,27,0.0,0.0,41,0.00,,---,0.00,VWS V14.00,2013-06-30 04:13:00,
2013-06-29 23:18:00,79.3,53.6,29.87,NNE,23,0.0,0.0,41,0.00,,---,0.00,VWS V14.00,2013-06-30 04:18:00,
2013-06-29 23:23:00,79.1,54.1,29.87,NNE,23,0.0,0.0,42,0.00,,---,0.00,VWS V14.00,2013-06-30 04:23:00,
2013-06-29 23:28:00,78.9,53.9,29.87,NNE,19,0.0,2.0,42,0.00,,---,0.00,VWS V14.00,2013-06-30 04:28:00,
2013-06-29 23:33:00,78.6,53.6,29.87,North,4,0.0,4.0,42,0.00,,---,0.00,VWS V14.00,2013-06-30 04:33:00,
2013-06-29 23:38:00,78.4,53.4,29.87,NNE,23,0.0,0.0,42,0.00,,---,0.00,VWS V14.00,2013-06-30 04:38:00,
2013-06-29 23:43:00,78.2,53.9,29.87,NNE,23,0.0,0.0,43,0.00,,---,0.00,VWS V14.00,2013-06-30 04:43:00,
2013-06-29 23:48:00,78.0,53.7,29.87,NNE,24,0.0,0.0,43,0.00,,---,0.00,VWS V14.00,2013-06-30 04:48:00,
2013-06-29 23:53:00,77.9,53.0,29.87,NNE,23,0.0,0.0,42,0.00,,---,0.00,VWS V14.00,2013-06-30 04:53:00,
2013-06-29 23:58:00,77.9,53.0,29.87,NNE,23,0.0,2.0,42,0.00,,---,0.00,VWS V14.00,2013-06-30 04:58:00,